Voltar ao catálogo

STARLINK-37809

AtivoComunicaçõesVLEO
NORAD 100288·PAYLOAD·🇺🇸 United States

Lançado Aug 11, 2026 de Cape Canaveral Space Force Station

Loading…

Próximas Passagens (próximas 24 horas)

TLE

EnvelhecendoSource: Space-Track

Época: Sep 12, 2026, 06:37 UTC

1 A0288U 26183S   26255.27581844  .00177036  00000-0  11474-2 0  9990
2 A0288  53.1570 297.7987 0004523 332.6033  27.4748 15.74981865  5016

Acompanhe STARLINK-37809 em tempo real com AllMySat

Download on the App Store